Walla Walla, WA

3:50 PM PST on December 04, 2016 (GMT -0800)
Walla Walla Regional

Weather History for KALW - May, 2014

Change the Weather History Date:

Monday, May 19, 2014

  Actual Average Record
Temperature  
Mean Temperature 61 °F 60 °F  
Max Temperature 71 °F 71 °F 89 °F (2006)
Min Temperature 51 °F 49 °F 39 °F (1976)
Degree Days  
Heating Degree Days 4 6  
Month to date heating degree days 152  
Since 1 July heating degree days 4893  
Cooling Degree Days 0 1  
Month to date cooling degree days 16  
Year to date cooling degree days 18  
Growing Degree Days 11 (Base 50)    
Moisture  
Dew Point 40 °F    
Average Humidity 48    
Maximum Humidity 68    
Minimum Humidity 28    
Precipitation  
Precipitation 0.00 in 0.06 in 1.28 in (1991)
Month to date precipitation 1.28  
Year to date precipitation 9.79  
Snow  
Snow 0.00 in 0.00 in 0.00 in (2001)
Month to date snowfall 0.0  
Year to date snowfall 6.0  
Since 1 July snowfall 11.7  
Snow Depth -    
Sea Level Pressure  
Sea Level Pressure 29.93 in    
Wind  
Wind Speed 11 mph (SSW)    
Max Wind Speed 16 mph    
Max Gust Speed 23 mph    
Visibility 10 miles    
Events      
T = Trace of Precipitation, MM = Missing Value Source: NWS Daily Summary

Daily Weather History Graph

Daily Weather History Graph

Search for Another Location

Airport or City:

Trip Planner

Search our weather history database for the weather conditions in past years. The results will help you decide how hot, cold, wet, or windy it might be!

Date:

Astronomy

May. 19, 2014 Rise Set
Actual Time 5:16 AM PDT 8:23 PM PDT
Civil Twilight 4:40 AM PDT 8:59 PM PDT
Nautical Twilight 3:54 AM PDT 9:46 PM PDT
Astronomical Twilight 2:57 AM PDT 10:43 PM PDT
Moon 12:10 AM PDT (5/19) 10:24 AM PDT (5/19)
Length of Visible Light 16h 19m
Length of Day
15h 07m
Waning Gibbous, 70% of the Moon is Illuminated
May 19
Waning Gibbous
May 21
Last Quarter
May 28
New
Jun 5
First Quarter
Jun 12
Full

Hourly Weather History & Observations

Time (PDT) Temp. Dew Point Humidity Pressure Visibility Wind Dir Wind Speed Gust Speed Precip Events Conditions
12:53 AM 55.0 °F 41.0 °F 59% 29.89 in 10.0 mi SSW 16.1 mph - N/A   Overcast
1:53 AM 55.0 °F 41.0 °F 59% 29.90 in 10.0 mi South 11.5 mph - N/A   Overcast
2:53 AM 52.0 °F 41.0 °F 66% 29.91 in 10.0 mi SSW 11.5 mph - N/A   Clear
3:53 AM 51.1 °F 41.0 °F 68% 29.91 in 10.0 mi SSW 9.2 mph - N/A   Partly Cloudy
4:53 AM 52.0 °F 39.9 °F 63% 29.92 in 10.0 mi SSW 11.5 mph - N/A   Clear
7:53 AM 57.9 °F 41.0 °F 53% 29.96 in 10.0 mi SSW 12.7 mph - N/A   Clear
8:53 AM 59.0 °F 42.1 °F 53% 29.96 in 10.0 mi SW 12.7 mph 20.7 mph N/A   Clear
9:53 AM 60.1 °F 42.1 °F 51% 29.96 in 10.0 mi SW 13.8 mph 23.0 mph N/A   Scattered Clouds
11:53 AM 64.0 °F 39.9 °F 41% 29.96 in 10.0 mi SSW 5.8 mph 17.3 mph N/A   Mostly Cloudy
12:53 PM 66.9 °F 41.0 °F 39% 29.96 in 10.0 mi South 9.2 mph - N/A   Partly Cloudy
1:53 PM 66.9 °F 39.9 °F 37% 29.94 in 10.0 mi Variable 6.9 mph - N/A   Mostly Cloudy
2:53 PM 69.1 °F 39.9 °F 35% 29.94 in 10.0 mi SW 12.7 mph 19.6 mph N/A   Scattered Clouds
3:53 PM 70.0 °F 39.0 °F 32% 29.93 in 10.0 mi WSW 8.1 mph - N/A   Partly Cloudy
4:53 PM 71.1 °F 37.9 °F 30% 29.92 in 10.0 mi Variable 5.8 mph - N/A   Clear
5:53 PM 71.1 °F 37.0 °F 29% 29.92 in 10.0 mi WNW 9.2 mph - N/A   Clear
6:53 PM 70.0 °F 35.1 °F 28% 29.91 in 10.0 mi Calm Calm - N/A   Clear
7:53 PM 66.9 °F 41.0 °F 39% 29.92 in 10.0 mi ESE 3.5 mph - N/A   Clear
8:53 PM 60.1 °F 44.1 °F 55% 29.94 in 10.0 mi East 6.9 mph - N/A   Clear
9:53 PM 57.0 °F 42.1 °F 57% 29.95 in 10.0 mi ESE 9.2 mph - N/A   Clear
10:53 PM 57.0 °F 41.0 °F 55% 29.96 in 10.0 mi East 10.4 mph - N/A   Clear
11:53 PM 54.0 °F 41.0 °F 62% 29.96 in 10.0 mi Calm Calm - N/A   Clear